HAWK-10B

Last updated on Mon Sep 16 2024 00:02:04 GMT+0000 (Coordinated Universal Time)

1 60545U 24149CF 24259.46844087 .00008243 00000+0 81113-3 0 9996 2 60545 97.7461 334.4685 0006698 75.1796 285.0164 14.92328653 4411
UTC large
Height (km)
Speed (km/s)
/
Latitude / Longitude
Inclination (degrees)
Orbital Period (minutes)
Azimuth
Elevation
Range (km)
Doppler Factor

Next 0 passes for location: London (51.5072 / 0.1276)

Sorry there are no passes over London.